Location: Peebles
(55.6412°N, 3.1714°W)
Time: 11:56:21
(UTC+01:00)

OBJECT A - Pass Details

Date: 05 July 2022
Orbit: 611 x 632 km, 97.9° (Epoch: 17 August)

Event Time Altitude Azimuth Distance (km) Brightness Sun altitude
Exits shadow 23:23:51 - 172° (S) 2,072 ? -8.0°
Reaches altitude 10° 23:24:03 10° 172° (S) 1,991 ? -8.0°
Maximum altitude 23:28:22 71° 256° (WSW) 662 ? -8.3°
Drops below altitude 10° 23:32:43 10° 341° (NNW) 1,994 ? -8.5°
Sets 23:34:55 0° 344° (NNW) 2,901 ? -8.7°
